Location: Washington
(38.8950°N, 77.0370°W)
Time: 19:54:52
(UTC-04:00)

Amateur Radio Satellites - All Passes

Search period start: 24 April 2014 19:24
Search period end: 25 April 2014 19:24
Location: Washington, 38.8950°N, 77.0370°W

Satellite Date Start Highest point End Downlink Frequencies (MHz)
Time Altitude Azimuth
HO-68 24 Apr 19:44:05 19:48:16 17° 55° (NE) 19:52:26 435.675 MHz FM
ISS 24 Apr 19:51:44 19:54:57 40° 33° (NNE) 19:58:11 145.800 FM
STRAND 1 24 Apr 20:13:41 20:18:44 65° 286° (WNW) 20:23:46 ?
Saudisat 1A 24 Apr 20:26:39 20:29:11 15° 251° (WSW) 20:31:43 436.775 MHz
MaSat-1 24 Apr 20:55:18 20:58:04 55° 295° (WNW) 21:00:35 437.345 MHz
JAS-2 24 Apr 21:09:37 21:11:11 11° 269° (W) 21:12:44 435.800 - 435.900 CW/SSB, 435.910 FM
HO-68 24 Apr 21:27:49 21:34:57 88° 73° (ENE) 21:42:09 435.675 MHz FM
ISS 24 Apr 21:28:53 21:31:30 21° 229° (SW) 21:34:06 145.800 FM
Oscar 11 24 Apr 22:05:30 22:09:48 78° 76° (ENE) 22:14:08 145.825 FM, Beacon 2401.500 USB
FUNcube-1 24 Apr 22:13:36 22:17:08 27° 70° (ENE) 22:20:41 145.950 - 145.970 MHz USB
PCSat 24 Apr 22:36:14 22:39:58 19° 105° (ESE) 22:43:44 145.825 MHz
SO-50 24 Apr 22:37:00 22:40:55 26° 49° (NE) 22:44:52 436.795 FM
HO-68 24 Apr 23:19:40 23:23:27 15° 270° (W) 23:27:16 435.675 MHz FM
Sapphire 24 Apr 23:33:16 23:38:33 60° 114° (ESE) 23:43:54 437.095 MHz 1200 baud AX-25 AFSK
FUNcube-1 24 Apr 23:50:19 23:53:33 22° 265° (W) 23:56:47 145.950 - 145.970 MHz USB
SO-50 25 Apr 00:17:16 00:21:33 37° 245° (WSW) 00:25:53 436.795 FM
PCSat 25 Apr 00:17:39 00:22:55 54° 302° (WNW) 00:28:15 145.825 MHz
UOSAT-12 25 Apr 00:27:16 00:30:49 21° 46° (NE) 00:34:21 437.025 FM, 437.400 FM
Sapphire 25 Apr 01:18:22 01:22:23 21° 312° (NW) 01:26:26 437.095 MHz 1200 baud AX-25 AFSK
OPAL 25 Apr 01:27:07 01:28:16 11° 57° (ENE) 01:29:26 ?
Oscar 19 25 Apr 01:28:57 01:31:03 12° 90° (E) 01:33:08 437.125 CW, 437.150 USB
Oscar 16 25 Apr 01:37:17 01:40:34 17° 92° (E) 01:43:50 437.025 USB, Beacon 2401.1428
KITSAT 1 25 Apr 01:48:00 01:55:52 58° 113° (ESE) 02:03:46 435.175 FM
UOSAT-12 25 Apr 02:06:41 02:11:16 52° 243° (WSW) 02:15:48 437.025 FM, 437.400 FM
AO-Echo 25 Apr 02:22:15 02:25:03 16° 92° (E) 02:27:51 ?
Uribyol 2 25 Apr 02:22:46 02:26:53 23° 95° (E) 02:30:59 436.500 FM
OPAL 25 Apr 03:01:16 03:06:18 86° 73° (ENE) 03:11:28 ?
AO-27 25 Apr 03:05:25 03:10:33 59° 101° (E) 03:15:39 436.795 MHz FM
Oscar 19 25 Apr 03:05:41 03:10:53 73° 286° (WNW) 03:16:03 437.125 CW, 437.150 USB
ITAMSAT 1 25 Apr 03:14:29 03:19:40 71° 102° (ESE) 03:24:49 435.822 SSB
Oscar 16 25 Apr 03:15:10 03:20:14 55° 288° (WNW) 03:25:17 437.025 USB, Beacon 2401.1428
Gurwin Techsat 1B 25 Apr 03:32:02 03:36:48 33° 97° (E) 03:41:31 435.225 FM
KITSAT 1 25 Apr 03:44:22 03:51:37 35° 313° (NW) 03:58:54 435.175 FM
AO-Echo 25 Apr 03:59:35 04:04:07 48° 288° (WNW) 04:08:36 ?
Uribyol 2 25 Apr 04:01:40 04:06:27 39° 290° (WNW) 04:11:15 436.500 FM
TMSAT-1 25 Apr 04:15:58 04:21:13 61° 101° (E) 04:26:27 436.925 FM
Uosat F 25 Apr 04:23:43 04:27:44 24° 95° (E) 04:31:43 435.120 FM
JAS-1B 25 Apr 04:38:29 04:43:59 47° 100° (E) 04:49:58 435.800 - 435.900 CW/SSB
AO-27 25 Apr 04:46:20 04:49:33 17° 297° (WNW) 04:52:47 436.795 MHz FM
RS-15 25 Apr 04:46:31 04:55:05 26° 103° (ESE) 05:03:23 29.354 - 29.394 USB, Beacon 29.352 USB
ITAMSAT 1 25 Apr 04:55:53 04:58:32 14° 299° (WNW) 05:01:11 435.822 SSB
Gurwin Techsat 1B 25 Apr 05:12:06 05:16:39 30° 292° (WNW) 05:21:11 435.225 FM
MaSat-1 25 Apr 05:19:24 05:21:26 16° 60° (ENE) 05:23:39 437.345 MHz
AO-7 25 Apr 05:31:20 05:39:35 62° 104° (ESE) 05:47:49 29.400 - 29.500 MHz
KITSAT 1 25 Apr 05:48:07 05:50:00 11° 340° (NNW) 05:51:53 435.175 FM
STRAND 1 25 Apr 05:51:14 05:54:43 19° 64° (ENE) 05:58:13 ?
TMSAT-1 25 Apr 05:57:20 06:00:37 17° 297° (WNW) 06:03:53 436.925 FM
Uosat F 25 Apr 06:02:02 06:06:35 36° 291° (WNW) 06:11:07 435.120 FM
PANSAT 25 Apr 06:12:11 06:13:54 13° 167° (SSE) 06:15:37 not established
Hamsat 25 Apr 06:23:46 06:26:38 17° 93° (E) 06:29:29 145.90 MHz
AO-40 25 Apr 06:28:17 09:51:00 26° 135° (SE) 11:18:33 Beacon 2401.320
JAS-1B 25 Apr 06:30:11 06:34:25 22° 296° (WNW) 06:38:52 435.800 - 435.900 CW/SSB
RS-15 25 Apr 06:54:51 07:06:13 80° 302° (WNW) 07:17:16 29.354 - 29.394 USB, Beacon 29.352 USB
MaSat-1 25 Apr 06:56:52 06:59:43 27° 249° (WSW) 07:03:00 437.345 MHz
PCSat 25 Apr 07:24:52 07:27:58 15° 44° (NE) 07:31:02 145.825 MHz
AO-7 25 Apr 07:24:57 07:31:49 30° 302° (WNW) 07:38:42 29.400 - 29.500 MHz
STRAND 1 25 Apr 07:28:33 07:33:30 51° 260° (W) 07:38:29 ?
PANSAT 25 Apr 07:50:49 07:53:27 18° 180° (S) 07:56:05 not established
Hamsat 25 Apr 07:58:41 08:02:46 39° 288° (WNW) 08:06:49 145.90 MHz
JAS-2 25 Apr 08:13:35 08:19:14 76° 103° (ESE) 08:25:35 435.800 - 435.900 CW/SSB, 435.910 FM
Sapphire 25 Apr 08:22:38 08:27:39 37° 55° (NE) 08:32:38 437.095 MHz 1200 baud AX-25 AFSK
SO-67 25 Apr 08:22:46 08:26:17 76° 101° (E) 08:29:46 435.3500 MHz FM
Saudisat 1A 25 Apr 08:52:29 08:55:29 18° 110° (ESE) 08:58:30 436.775 MHz
HO-68 25 Apr 08:58:47 09:03:12 17° 91° (E) 09:07:35 435.675 MHz FM
PCSat 25 Apr 09:06:41 09:12:08 89° 244° (WSW) 09:17:33 145.825 MHz
RS-15 25 Apr 09:11:40 09:20:34 26° 328° (NNW) 09:29:22 29.354 - 29.394 USB, Beacon 29.352 USB
PANSAT 25 Apr 09:31:09 09:33:00 13° 192° (SSW) 09:34:52 not established
KITSAT 1 25 Apr 09:42:58 09:49:25 25° 41° (NE) 09:55:49 435.175 FM
Oscar 11 25 Apr 09:55:47 09:58:26 16° 92° (E) 10:01:04 145.825 FM, Beacon 2401.500 USB
JAS-2 25 Apr 10:00:46 10:03:50 15° 297° (WNW) 10:07:03 435.800 - 435.900 CW/SSB, 435.910 FM
Sapphire 25 Apr 10:06:18 10:10:55 29° 252° (WSW) 10:15:31 437.095 MHz 1200 baud AX-25 AFSK
Saudisat 1A 25 Apr 10:30:27 10:34:44 45° 306° (NW) 10:39:03 436.775 MHz
Oscar 10/S400 25 Apr 10:41:45 12:22:06 54° 237° (WSW) 18:40:50 145.825 - 145.975 CW/USB, Beacon 145.810 USB
HO-68 25 Apr 10:44:23 10:51:35 81° 288° (WNW) 10:58:46 435.675 MHz FM
PCSat 25 Apr 10:54:03 10:54:42 10° 259° (WSW) 10:55:20 145.825 MHz
Oscar 11 25 Apr 11:30:40 11:34:48 42° 288° (WNW) 11:38:55 145.825 FM, Beacon 2401.500 USB
RS-15 25 Apr 11:32:05 11:38:29 17° 5° (N) 11:44:54 29.354 - 29.394 USB, Beacon 29.352 USB
KITSAT 1 25 Apr 11:37:39 11:45:47 84° 243° (WSW) 11:53:50 435.175 FM
FUNcube-1 25 Apr 11:39:19 11:43:39 74° 102° (ESE) 11:48:05 145.950 - 145.970 MHz USB
ISS 25 Apr 12:33:39 12:36:23 24° 132° (SE) 12:39:08 145.800 FM
HO-68 25 Apr 12:34:23 12:38:11 15° 306° (NW) 12:41:59 435.675 MHz FM
Oscar 19 25 Apr 12:44:20 12:47:38 17° 63° (ENE) 12:50:56 437.125 CW, 437.150 USB
Oscar 16 25 Apr 12:53:03 12:56:58 22° 65° (ENE) 13:00:54 437.025 USB, Beacon 2401.1428
ITAMSAT 1 25 Apr 12:56:05 12:57:45 12° 60° (ENE) 12:59:25 435.822 SSB
AO-Echo 25 Apr 13:33:40 13:37:29 21° 66° (ENE) 13:41:13 ?
KITSAT 1 25 Apr 13:35:49 13:39:56 15° 260° (W) 13:44:03 435.175 FM
Uribyol 2 25 Apr 13:39:29 13:44:00 32° 68° (ENE) 13:48:31 436.500 FM
RS-15 25 Apr 13:46:00 13:55:41 34° 39° (NE) 14:05:29 29.354 - 29.394 USB, Beacon 29.352 USB
TMSAT-1 25 Apr 14:00:51 14:01:44 10° 59° (ENE) 14:02:36 436.925 FM
ISS 25 Apr 14:09:53 14:12:58 35° 329° (NNW) 14:16:05 145.800 FM
Oscar 19 25 Apr 14:21:26 14:26:29 57° 259° (W) 14:31:35 437.125 CW, 437.150 USB
AO-27 25 Apr 14:22:21 14:27:32 79° 75° (ENE) 14:32:43 436.795 MHz FM
SO-50 25 Apr 14:30:44 14:35:13 83° 301° (WNW) 14:39:45 436.795 FM
Oscar 16 25 Apr 14:31:10 14:36:01 42° 261° (W) 14:40:56 437.025 USB, Beacon 2401.1428
ITAMSAT 1 25 Apr 14:31:18 14:36:29 87° 256° (WSW) 14:41:41 435.822 SSB
AO-7 25 Apr 14:41:00 14:45:32 16° 50° (NE) 14:50:03 29.400 - 29.500 MHz
Gurwin Techsat 1B 25 Apr 14:51:52 14:56:54 46° 71° (ENE) 15:01:57 435.225 FM
AO-Echo 25 Apr 15:11:00 15:15:57 44° 261° (W) 15:20:47 ?
OPAL 25 Apr 15:13:02 15:17:20 25° 97° (E) 15:21:34 ?
Uribyol 2 25 Apr 15:19:00 15:23:26 29° 264° (W) 15:27:53 436.500 FM
JAS-1B 25 Apr 15:22:05 15:29:04 41° 69° (ENE) 15:35:02 435.800 - 435.900 CW/SSB
TMSAT-1 25 Apr 15:35:30 15:40:47 83° 76° (ENE) 15:46:06 436.925 FM
Uosat F 25 Apr 15:35:50 15:40:09 30° 68° (ENE) 15:44:29 435.120 FM
ISS 25 Apr 15:49:16 15:50:29 12° 348° (NNW) 15:51:41 145.800 FM
RS-15 25 Apr 15:58:10 16:09:05 77° 243° (WSW) 16:20:21 29.354 - 29.394 USB, Beacon 29.352 USB
AO-27 25 Apr 16:06:13 16:07:36 11° 270° (W) 16:08:59 436.795 MHz FM
SO-50 25 Apr 16:14:49 16:16:30 12° 320° (NW) 16:18:12 436.795 FM
UOSAT-12 25 Apr 16:16:26 16:20:55 64° 118° (ESE) 16:25:31 437.025 FM, 437.400 FM
AO-7 25 Apr 16:28:42 16:36:55 74° 69° (ENE) 16:45:11 29.400 - 29.500 MHz
Gurwin Techsat 1B 25 Apr 16:33:08 16:37:03 21° 267° (W) 16:41:00 435.225 FM
OPAL 25 Apr 16:51:27 16:56:15 38° 293° (WNW) 17:01:01 ?
JAS-1B 25 Apr 17:12:47 17:19:40 34° 262° (W) 17:25:37 435.800 - 435.900 CW/SSB
Uosat F 25 Apr 17:14:31 17:18:52 29° 263° (W) 17:23:14 435.120 FM
Hamsat 25 Apr 17:18:14 17:19:19 11° 63° (ENE) 17:20:23 145.90 MHz
TMSAT-1 25 Apr 17:20:15 17:21:19 11° 271° (W) 17:22:23 436.925 FM
Saudisat 1A 25 Apr 17:20:24 17:22:32 13° 41° (NE) 17:24:39 436.775 MHz
ISS 25 Apr 17:27:48 17:28:27 10° 9° (N) 17:29:05 145.800 FM
UOSAT-12 25 Apr 17:58:29 18:01:31 17° 317° (NW) 18:04:35 437.025 FM, 437.400 FM
RS-15 25 Apr 18:14:01 18:19:32 15° 262° (W) 18:25:10 29.354 - 29.394 USB, Beacon 29.352 USB
AO-7 25 Apr 18:24:18 18:30:21 22° 267° (W) 18:36:28 29.400 - 29.500 MHz
JAS-2 25 Apr 18:26:23 18:30:48 25° 67° (ENE) 18:35:01 435.800 - 435.900 CW/SSB, 435.910 FM
Hamsat 25 Apr 18:50:32 18:54:42 64° 259° (W) 18:58:58 145.90 MHz
SO-67 25 Apr 18:55:58 18:58:37 21° 70° (ENE) 19:01:17 435.3500 MHz FM
Saudisat 1A 25 Apr 18:58:18 19:02:44 82° 240° (WSW) 19:07:05 436.775 MHz
ISS 25 Apr 19:03:09 19:06:05 26° 28° (NNE) 19:09:00 145.800 FM
